Date/Time (UTC),ProbHail,ProbWind,ProbTor,MESH,VIL Density,Flash Rate,Max Flash Density,LJA sigma-level,Max 0-2km AzShear,LLAZ 98th%,MLAZ 98th%,MUCAPE,MLCAPE,CAPE -10C to -30C,MLCIN,SRH 0-1km AGL,EBShear,MeanWind 0-1km AGL,Norm. Sat. Growth Rate,PWAT,WBZ,AvgBeamHgt,size
2021/02/16 02:06,1,25,6,0.17,1.00,14,0.53,0.0,5,4,4,1741,1182,401,3,290,44.5,46.2,0,1.9,11.1,2060.0,243
2021/02/16 02:08,1,40,6,0.26,1.00,21,0.61,0.0,5,4,5,1737,1182,401,3,290,44.5,45.8,0,1.9,11.1,2090.0,232
2021/02/16 02:10,1,44,6,0.28,1.20,21,0.61,0.0,5,4,5,1737,1182,401,3,290,44.5,46.2,0,1.9,11.1,2090.0,263
2021/02/16 02:12,1,40,6,0.29,1.20,21,0.61,0.0,5,4,4,1699,1164,403,3,290,44.6,45.4,0,1.9,11.1,2220.0,248
2021/02/16 02:14,1,40,6,0.29,1.20,21,0.61,0.0,5,4,5,1690,1159,403,3,290,44.7,45.4,0,1.9,11.1,2250.0,210
2021/02/16 02:16,1,40,6,0.29,1.10,21,0.61,0.0,5,4,5,1693,1162,403,3,290,44.7,45.4,0,1.9,11.1,2260.0,228
2021/02/16 02:18,1,35,6,0.31,1.10,17,0.61,0.0,5,4,5,1690,1159,403,3,290,44.7,45.4,0,1.9,11.1,2260.0,239
2021/02/16 02:20,2,37,5,0.31,1.10,19,0.61,3.9,5,4,4,1665,1144,395,4,295,45.5,44.8,0,1.9,11.1,2430.0,480
2021/02/16 02:22,2,20,5,0.31,0.80,20,0.61,0.2,4,3,4,1671,1154,398,4,292,45.0,44.9,0,1.9,11.1,2410.0,375
2021/02/16 02:24,2,6,4,0.31,0.80,20,0.61,0.0,4,3,4,1661,1145,397,4,293,44.9,44.9,0,1.9,11.1,2370.0,240
2021/02/16 02:26,2,21,4,0.29,0.80,24,0.61,2.4,4,3,3,1676,1173,398,6,292,47.0,44.5,0,1.9,11.0,2570.0,292
2021/02/16 02:28,2,21,4,0.29,0.80,24,0.61,0.0,4,3,3,1666,1154,398,6,294,47.1,44.5,0,1.9,11.0,2570.0,267
2021/02/16 02:30,2,21,4,0.29,0.70,24,0.61,0.0,4,3,3,1676,1173,398,6,292,47.4,44.5,0,1.9,11.0,2580.0,277
2021/02/16 02:32,2,21,4,0.23,0.70,24,0.61,1.5,4,3,3,1664,1141,387,7,304,48.0,44.1,0,1.9,10.6,2650.0,242
2021/02/16 02:34,1,20,5,0.23,0.70,20,0.61,0.0,4,3,4,1686,1164,393,8,298,48.1,44.1,0,1.9,10.6,2670.0,198
2021/02/16 02:36,1,20,5,0.23,0.70,20,0.61,0.0,4,3,3,1666,1144,391,8,301,48.1,44.1,0,1.9,10.5,2650.0,250
2021/02/16 02:38,1,20,5,0.23,0.70,20,0.61,0.4,4,3,4,1692,1164,391,9,301,48.2,44.0,0,1.9,10.5,2650.0,147
2021/02/16 02:40,2,21,6,0.37,0.70,18,0.57,0.0,5,4,4,1692,1164,391,9,301,48.2,44.0,0,1.9,10.5,2600.0,45
2021/02/16 02:42,3,21,6,0.37,0.70,18,0.57,0.9,5,4,3,1666,1141,379,8,312,48.3,44.0,0,1.9,10.3,2520.0,258
2021/02/16 02:44,3,21,6,0.37,0.70,18,0.57,0.0,5,4,4,1681,1153,383,9,308,48.4,43.9,0,1.9,10.3,2550.0,211
2021/02/16 02:46,3,21,6,0.46,0.90,12,0.57,0.0,4,4,5,1681,1153,383,9,308,48.5,43.8,0,1.9,10.3,2450.0,46
2021/02/16 02:48,3,32,9,0.48,0.90,15,0.66,1.7,6,5,5,1721,1179,383,10,308,48.5,43.8,0,1.9,10.3,2410.0,91
2021/02/16 02:50,3,29,9,0.48,0.90,15,0.66,0.0,6,5,5,1700,1166,383,10,309,48.5,43.8,0,1.9,10.2,2410.0,102
2021/02/16 02:52,3,41,15,0.48,0.90,15,0.66,0.0,7,6,6,1678,1152,378,10,314,48.4,43.7,0,1.9,10.2,2280.0,53
2021/02/16 02:54,7,58,15,0.55,1.00,30,0.66,3.3,7,6,4,1709,1163,375,11,318,48.3,43.5,0,1.9,10.2,2180.0,206
2021/02/16 02:56,7,58,15,0.55,1.00,30,0.66,0.0,7,6,4,1709,1163,375,11,318,48.3,43.6,0,1.9,10.2,2180.0,206
2021/02/16 02:58,7,41,6,0.55,1.00,30,0.66,0.0,5,4,4,1709,1184,373,12,319,47.8,43.5,0,1.9,10.2,2040.0,234
2021/02/16 03:00,6,47,5,0.52,1.00,30,0.66,0.0,5,4,4,1964,1389,408,4,244,45.5,52.0,0,1.9,11.1,1980.0,227
2021/02/16 03:02,4,44,5,0.47,1.00,24,0.66,0.0,5,4,4,1964,1385,406,3,244,45.5,52.0,0,1.9,11.1,1970.0,217
2021/02/16 03:04,2,29,5,0.47,1.00,16,0.66,0.0,5,4,3,1935,1367,402,3,250,43.8,51.9,0,1.9,11.1,1870.0,203
2021/02/16 03:06,2,21,5,0.47,1.00,11,0.66,0.0,5,4,3,1910,1369,406,3,251,44.8,51.7,0,1.9,11.1,1780.0,239
2021/02/16 03:08,1,20,6,0.33,0.80,9,0.66,0.0,5,5,3,1920,1361,401,2,256,43.3,51.7,0,1.9,11.1,1790.0,67
2021/02/16 03:10,1,20,6,0.33,0.80,9,0.66,0.0,6,5,4,1909,1361,402,2,256,43.7,51.7,0,1.9,11.1,1740.0,128
2021/02/16 03:12,1,16,11,0.32,0.80,6,0.66,0.0,7,7,4,1908,1344,406,2,264,43.5,51.4,0,1.9,11.0,1650.0,56
2021/02/16 03:14,1,16,11,0.21,0.70,4,0.66,0.0,7,7,4,1908,1336,405,2,269,43.3,51.3,0,1.9,11.0,1640.0,53
2021/02/16 03:16,1,16,13,0.21,0.70,4,0.66,0.0,7,7,4,1911,1322,415,3,275,44.1,51.0,0,1.9,10.7,1520.0,124
2021/02/16 03:18,1,16,8,0.17,0.70,1,0.66,0.0,5,5,4,1916,1300,416,4,288,45.2,50.6,0,2.0,10.4,1440.0,111
2021/02/16 03:20,1,3,7,0.17,0.60,1,0.52,0.0,6,4,4,1919,1300,425,4,288,45.6,50.5,0,2.0,10.4,1420.0,116
2021/02/16 03:22,1,3,7,0.17,0.60,1,0.52,0.0,6,4,4,1919,1299,427,5,290,45.8,50.4,0,2.0,10.3,1360.0,99
2021/02/16 03:24,1,16,9,0.13,0.60,2,0.52,0.0,6,5,5,1919,1278,430,6,305,47.6,50.0,0,2.0,10.2,1300.0,100
2021/02/16 03:26,1,25,9,0.15,0.70,2,0.51,0.0,6,5,5,1919,1262,430,6,313,47.6,49.6,0,2.0,10.2,1250.0,87
2021/02/16 03:28,1,25,20,0.15,0.70,2,0.30,0.0,10,6,5,1919,1262,432,7,313,48.1,49.5,0,2.0,10.2,1210.0,95
2021/02/16 03:30,1,25,35,0.15,0.70,2,0.21,0.0,11,8,4,1917,1258,432,8,321,50.0,49.5,0,2.0,10.2,1170.0,100
2021/02/16 03:32,1,31,35,0.23,1.00,2,0.21,0.0,10,8,5,1911,1243,432,11,330,50.2,49.0,0,2.0,10.2,1090.0,47
2021/02/16 03:34,1,31,51,0.23,1.00,6,0.39,0.0,13,10,5,1906,1233,429,11,342,50.9,48.7,0,2.0,10.2,1060.0,57
2021/02/16 03:36,2,33,69,0.28,1.00,8,0.39,0.0,17,17,5,1906,1233,429,11,342,50.9,48.7,0,2.0,10.2,1040.0,72
2021/02/16 03:38,2,37,73,0.28,0.80,9,0.39,0.0,17,17,7,1896,1221,421,14,364,51.2,48.2,0,2.0,10.2,920.0,109
2021/02/16 03:40,4,53,73,0.50,1.60,11,0.39,1.5,17,17,7,1896,1221,421,14,364,51.2,48.2,0,2.0,10.2,920.0,64
2021/02/16 03:42,6,63,75,0.53,1.60,19,0.51,6.6,17,16,7,1895,1228,421,14,363,51.2,48.2,0,2.0,10.2,920.0,249
2021/02/16 03:44,7,63,75,0.53,1.60,23,0.51,1.6,17,16,7,1888,1228,417,15,363,51.2,48.0,0,2.0,10.2,880.0,261
2021/02/16 03:46,12,58,76,0.62,1.80,27,0.51,1.3,17,11,7,1872,1230,411,16,364,52.0,47.6,0,2.0,10.2,800.0,344
2021/02/16 03:48,18,76,68,0.62,1.90,37,0.74,3.8,14,10,7,1865,1230,411,17,367,52.0,47.6,0,2.0,10.2,790.0,379
2021/02/16 03:50,18,78,63,0.62,1.90,37,0.74,0.0,14,9,5,1865,1228,409,17,367,52.0,47.6,0,2.0,10.2,780.0,369
2021/02/16 03:52,20,78,60,0.61,1.90,37,0.74,0.0,9,9,6,1832,1241,403,18,375,53.2,47.0,0,2.0,10.2,660.0,211
2021/02/16 03:54,17,80,46,0.57,1.90,37,0.75,0.8,11,9,6,1831,1241,400,18,381,53.2,46.9,0,2.0,10.2,640.0,259
2021/02/16 03:56,9,66,56,0.49,1.60,29,0.75,0.0,12,10,6,1825,1241,400,18,381,53.2,46.8,0,1.9,10.2,610.0,201
2021/02/16 03:58,5,65,55,0.46,1.40,29,0.75,0.5,12,10,5,1928,1247,373,6,326,47.9,52.9,0,2.0,11.1,550.0,325
2021/02/16 04:00,4,65,56,0.42,1.20,29,0.75,0.0,12,10,6,1932,1247,373,6,326,48.7,52.8,0,2.0,11.1,520.0,304
2021/02/16 04:02,2,47,56,0.37,1.00,18,0.75,0.0,12,10,6,1932,1258,374,6,326,48.9,52.8,0,2.0,11.1,510.0,298
2021/02/16 04:04,1,47,60,0.17,0.90,18,0.75,0.5,12,10,6,1926,1247,374,5,322,50.4,52.6,0,2.0,11.1,460.0,354
2021/02/16 04:06,1,42,61,0.13,0.90,14,0.75,0.0,13,9,7,1890,1222,374,5,322,51.5,52.6,0,2.0,11.1,430.0,323
2021/02/16 04:08,1,44,61,0.18,0.80,14,0.75,0.0,13,9,7,1890,1222,374,5,322,51.5,52.5,0,2.0,11.1,430.0,347
2021/02/16 04:10,1,44,63,0.18,0.80,14,0.75,0.0,13,9,7,1850,1186,374,6,321,52.6,52.3,0,2.0,11.1,370.0,377
2021/02/16 04:12,1,47,79,0.18,1.00,12,0.75,0.8,13,9,10,1808,1144,374,6,321,53.2,52.0,0,2.0,11.1,330.0,350
2021/02/16 04:14,2,59,87,0.31,1.30,12,0.75,0.1,17,10,10,1802,1142,374,6,321,53.1,51.9,0,2.0,11.1,330.0,376
2021/02/16 04:16,2,63,91,0.31,1.30,16,0.75,1.0,18,12,9,1730,1084,374,6,328,52.7,51.8,0,2.0,11.1,320.0,324
2021/02/16 04:18,3,64,92,0.31,1.30,24,0.75,5.8,18,12,11,1719,1066,382,6,330,52.8,51.5,0,2.0,11.1,280.0,263
2021/02/16 04:20,9,78,92,0.48,1.70,40,0.75,5.8,18,12,11,1702,1047,387,6,334,52.8,51.4,0,2.0,11.1,260.0,315
2021/02/16 04:22,16,73,92,0.61,1.70,41,0.75,0.2,18,12,11,1696,1032,389,7,338,52.7,51.0,0,2.0,11.0,220.0,328
2021/02/16 04:24,16,80,92,0.61,1.70,41,0.75,0.0,18,11,11,1696,1029,389,8,340,52.7,50.5,0,2.0,10.8,190.0,316
2021/02/16 04:26,18,85,88,0.61,1.70,41,0.67,0.7,14,11,11,1696,1029,389,8,343,52.6,50.5,0,2.0,10.8,170.0,307
2021/02/16 04:28,15,85,89,0.56,1.70,41,0.67,0.2,15,13,11,1702,1029,390,8,343,52.6,50.4,0,2.0,10.8,160.0,280
2021/02/16 04:30,10,81,92,0.50,1.70,37,0.67,0.0,18,13,8,1689,1012,386,11,348,52.4,49.8,0,2.0,10.4,110.0,313
2021/02/16 04:32,10,81,92,0.47,1.70,37,0.67,1.3,18,13,10,1671,1001,382,11,352,52.1,49.7,0,2.0,10.3,80.0,342
2021/02/16 04:34,10,78,90,0.48,1.60,37,0.67,0.0,18,13,10,1671,1001,382,12,354,52.1,49.7,0,2.0,10.3,70.0,327
2021/02/16 04:36,9,76,90,0.48,1.60,33,0.67,0.2,20,14,9,1669,993,378,13,355,52.0,49.2,0,2.0,10.3,60.0,309
2021/02/16 04:38,9,76,90,0.48,1.60,33,0.67,1.2,20,14,8,1626,978,371,14,361,51.7,49.1,0,2.0,10.2,40.0,383
2021/02/16 04:40,7,65,87,0.43,1.50,33,0.67,0.0,24,14,8,1624,972,366,15,363,51.6,48.8,0,2.0,10.2,30.0,361
2021/02/16 04:42,4,63,84,0.30,1.00,33,0.67,1.1,24,14,6,1571,951,357,17,372,51.4,48.6,0,1.9,10.2,40.0,489
2021/02/16 04:44,4,63,84,0.28,0.90,33,0.67,0.0,31,20,7,1554,938,354,18,376,51.2,48.3,0,1.9,10.2,20.0,204
2021/02/16 04:46,3,52,80,0.21,1.10,29,0.67,0.0,31,20,6,1527,931,348,18,376,51.1,48.3,0,1.9,10.2,30.0,202
2021/02/16 04:48,2,65,82,0.13,1.20,29,0.67,0.0,31,20,7,1508,905,343,22,386,51.0,48.0,0,1.9,10.2,40.0,221
2021/02/16 04:50,1,61,83,0.13,1.20,20,0.67,0.7,31,20,8,1478,874,333,25,391,50.8,47.9,0,1.9,10.2,80.0,404
2021/02/16 04:52,1,51,83,0.15,1.20,15,0.67,0.0,31,18,8,1457,857,327,27,397,50.8,47.6,0,1.9,10.2,100.0,482
2021/02/16 04:54,1,51,81,0.15,1.20,15,0.51,0.0,21,13,8,1405,825,318,28,400,50.7,47.6,0,1.9,10.2,110.0,445
2021/02/16 04:56,1,61,89,0.18,1.20,15,0.49,0.0,21,13,11,1377,809,312,32,407,50.6,47.4,0,1.9,10.2,130.0,323
2021/02/16 04:58,1,51,92,0.25,1.50,10,0.49,0.0,21,18,13,1365,798,309,32,407,50.6,47.4,0,1.9,10.1,120.0,181
2021/02/16 05:00,1,59,92,0.25,1.50,6,0.49,0.0,25,19,15,1422,799,309,14,359,47.8,54.4,0,2.0,11.0,150.0,163
2021/02/16 05:02,1,59,92,0.25,1.50,2,0.49,0.0,25,19,15,1393,790,304,14,359,47.7,54.5,0,2.0,11.0,180.0,133
2021/02/16 05:04,1,56,92,0.28,1.30,2,0.43,0.0,25,19,13,1357,736,292,18,359,47.6,54.6,0,2.0,11.0,210.0,166
2021/02/16 05:06,1,56,91,0.28,1.30,2,0.43,0.0,25,19,14,1339,714,290,18,359,47.5,54.7,0,2.0,11.0,230.0,154
2021/02/16 05:08,1,56,91,0.28,1.30,6,0.43,0.0,25,17,11,1325,686,289,19,359,47.4,54.7,0,1.9,11.0,260.0,142
2021/02/16 05:10,1,56,88,0.37,1.30,6,0.32,0.0,16,12,11,1313,662,277,24,359,47.4,54.8,0,1.9,11.0,280.0,187
2021/02/16 05:12,1,46,87,0.37,1.20,7,0.32,0.0,17,14,11,1299,628,276,25,359,47.4,54.8,0,1.9,11.0,310.0,159
2021/02/16 05:14,1,56,86,0.37,1.40,8,0.32,0.0,17,14,11,1282,606,275,32,367,47.4,54.8,0,1.9,11.0,340.0,152
2021/02/16 05:16,2,60,87,0.36,1.40,14,0.32,1.9,17,14,10,1274,583,269,33,369,47.7,54.8,0,1.9,11.0,380.0,172
